カタログに戻る

DELTA 1 DEB

運用中UNKNOWN
NORAD 9835·DEBRIS·🇺🇸 United States

打ち上げ Nov 6, 1973 から Vandenberg Space Force Base

Loading…

次のパス (今後24時間)

TLE

最新Source: Space-Track

元期: Sep 14, 2026, 09:13 UTC

1 09835U 73086GD  26257.38471559  .00000009  00000-0  69485-3 0  9997
2 09835 101.3258  52.0127 0667671 274.9431 103.5309 11.33509473596677

AllMySatでDELTA 1 DEBをリアルタイム追跡

Download on the App Store